Change the Weather History Date:

Tuesday, April 9, 2013

  Actual Average Record
Temperature  
Mean Temperature 47 °F 57 °F  
Max Temperature 68 °F 71 °F 92 °F (2011)
Min Temperature 25 °F 43 °F 20 °F (1973)
Degree Days  
Heating Degree Days 18 9  
Month to date heating degree days 112 89  
Since 1 July heating degree days 3292 3566  
Cooling Degree Days 0 1  
Month to date cooling degree days 5 6  
Year to date cooling degree days 5 13  
Moisture  
Dew Point 31 °F    
Average Humidity 66    
Maximum Humidity 84    
Minimum Humidity 47    
Precipitation  
Precipitation T in 0.05 in 0.53 in (1958)
Month to date precipitation 0.01 0.50  
Year to date precipitation 3.35 3.12  
Snow  
Snow 0.00 in - T in (2008)
Month to date snowfall T  
Since 1 July snowfall 27.5  
Snow Depth 0.00 in    
Sea Level Pressure  
Sea Level Pressure 29.71 in    
Wind  
Wind Speed 22 mph (North)    
Max Wind Speed 33 mph    
Max Gust Speed 40 mph    
Visibility 8 miles    
Events Rain    
T = Trace of Precipitation, MM = Missing Value Source: NWS Daily Summary

Daily Weather History Graph

Daily Weather History Graph

Search for Another Location

Airport or City:

Trip Planner

Search our weather history database for the weather conditions in past years. The results will help you decide how hot, cold, wet, or windy it might be!

Date:

Astronomy

Apr. 09, 2013 Rise Set
Actual Time 7:20 AM CDT 8:14 PM CDT
Civil Twilight 6:54 AM CDT 8:40 PM CDT
Nautical Twilight 6:23 AM CDT 9:11 PM CDT
Astronomical Twilight 5:51 AM CDT 9:42 PM CDT
Moon 6:43 AM CDT (4/9) 7:51 PM CDT (4/9)
Length of Visible Light 13h 45m
Length of Day
12h 53m
Waning Crescent, 1% of the Moon is Illuminated
Apr 9
Waning Crescent
Apr 10
New
Apr 18
First Quarter
Apr 25
Full
May 2
Last Quarter

Hourly Weather History & Observations

Time (CDT) Temp. Windchill Dew Point Humidity Pressure Visibility Wind Dir Wind Speed Gust Speed Precip Events Conditions
12:51 AM 69.1 °F - 53.1 °F 57% 29.37 in 10.0 mi SSE 17.3 mph 29.9 mph N/A   Clear
2:51 AM 66.9 °F - 57.9 °F 73% 29.35 in 10.0 mi SSE 23.0 mph 35.7 mph N/A   Clear
3:51 AM 66.0 °F - 57.0 °F 73% 29.34 in 10.0 mi South 21.9 mph 29.9 mph N/A   Clear
4:51 AM 64.9 °F - 55.9 °F 73% 29.35 in 10.0 mi SSE 19.6 mph 27.6 mph N/A   Clear
5:51 AM 64.0 °F - 57.0 °F 78% 29.36 in 10.0 mi SSE 17.3 mph 26.5 mph N/A   Mostly Cloudy
6:51 AM 63.0 °F - 57.9 °F 84% 29.37 in 10.0 mi SSE 13.8 mph 20.7 mph N/A   Clear
7:21 AM 51.8 °F - 37.4 °F 58% 29.58 in 5.0 mi North 25.3 mph 33.4 mph N/A   Haze
7:44 AM 48.2 °F - 35.6 °F 62% 29.63 in 5.0 mi North 15.0 mph 24.2 mph N/A   Haze
7:51 AM 48.0 °F - 36.0 °F 63% 29.55 in 3.0 mi NNW 19.6 mph 25.3 mph N/A   Haze
7:54 AM 48.2 °F - 35.6 °F 62% 29.65 in 2.5 mi NNW 21.9 mph 26.5 mph N/A   Haze
8:03 AM 46.4 °F 39.8 °F 35.6 °F 66% 29.65 in 2.5 mi North 16.1 mph - N/A   Haze
8:30 AM 44.6 °F 37.2 °F 33.8 °F 66% 29.68 in 3.0 mi NNW 17.3 mph 26.5 mph N/A   Haze
8:49 AM 44.6 °F 37.4 °F 32.0 °F 61% 29.70 in 6.0 mi North 16.1 mph 29.9 mph 0.00 in   Haze
8:51 AM 44.1 °F 36.8 °F 33.1 °F 65% 29.62 in 6.0 mi North 16.1 mph 29.9 mph 0.00 in   Haze
9:01 AM 44.6 °F 36.4 °F 32.0 °F 61% 29.71 in 6.0 mi NNW 20.7 mph 28.8 mph N/A   Haze
9:16 AM 42.8 °F 34.0 °F 30.2 °F 61% 29.72 in 3.0 mi NNW 20.7 mph 29.9 mph N/A   Haze
9:51 AM 42.1 °F 32.6 °F 30.0 °F 62% 29.67 in 7.0 mi NNW 23.0 mph 28.8 mph 0.00 in Rain Light Rain
10:51 AM 37.0 °F 24.7 °F 25.0 °F 62% 29.73 in 9.0 mi North 28.8 mph 34.5 mph 0.00 in   Overcast
11:51 AM 34.0 °F 22.4 °F 21.0 °F 59% 29.79 in 10.0 mi North 20.7 mph 32.2 mph N/A   Overcast
12:51 PM 32.0 °F 19.2 °F 19.9 °F 61% 29.82 in 10.0 mi North 23.0 mph 33.4 mph N/A   Overcast
2:51 PM 32.0 °F 18.9 °F 19.0 °F 59% 29.84 in 10.0 mi North 24.2 mph 35.7 mph N/A   Overcast
3:51 PM 30.9 °F 17.8 °F 19.0 °F 61% 29.86 in 10.0 mi North 23.0 mph 31.1 mph N/A   Overcast
4:51 PM 32.0 °F 18.9 °F 19.0 °F 59% 29.88 in 10.0 mi NNW 24.2 mph 34.5 mph N/A   Overcast
5:51 PM 34.0 °F 21.0 °F 18.0 °F 52% 29.87 in 10.0 mi North 26.5 mph 33.4 mph N/A   Overcast
6:24 PM 33.8 °F 21.0 °F 17.6 °F 52% 29.91 in 10.0 mi North 25.3 mph 32.2 mph N/A   Mostly Cloudy
6:51 PM 33.1 °F 20.6 °F 16.0 °F 50% 29.90 in 10.0 mi North 23.0 mph 32.2 mph N/A   Mostly Cloudy
7:51 PM 30.9 °F 18.4 °F 15.1 °F 52% 29.94 in 10.0 mi North 20.7 mph 29.9 mph N/A   Mostly Cloudy
8:51 PM 30.0 °F 17.2 °F 12.9 °F 49% 30.05 in 10.0 mi NNW 20.7 mph 38.0 mph N/A   Overcast
9:51 PM 28.0 °F 12.0 °F 12.0 °F 51% 30.01 in 10.0 mi North 31.1 mph 40.3 mph N/A   Overcast
10:51 PM 27.0 °F 11.3 °F 10.9 °F 51% 30.09 in 10.0 mi North 27.6 mph 39.1 mph 0.00 in   Overcast
11:51 PM 26.1 °F 11.3 °F 10.9 °F 53% 30.09 in 10.0 mi North 23.0 mph 32.2 mph N/A   Overcast